CW3786 Weather Reports


Display with metric or nautical units.
time (UTC)temp
F
wind
direction
speed
MPH
gust
MPH
rain 1hr
in
rain 24hr
in
rain mn
in
humidity
%
barometer
mb
20260503025122 58 266 0.0 0.0 0.00 0.00 0.00 83 1005.1
20260503024608 58 266 0.0 0.0 0.00 0.00 0.00 83 1005.1
20260503024057 58 266 0.0 0.0 0.00 0.00 0.00 82 1005.0
20260503023531 59 266 0.0 0.0 0.00 0.00 0.00 82 1005.0
20260503023046 59 266 0.0 3.0 0.00 0.00 0.00 82 1005.0
20260503022540 59 266 1.0 3.0 0.00 0.00 0.00 81 1005.0
20260503022039 59 263 0.0 2.0 0.00 0.00 0.00 80 1005.0
20260503021534 60 248 0.0 2.0 0.00 0.00 0.00 80 1005.0
20260503021034 60 244 0.0 2.0 0.00 0.00 0.00 79 1005.0
20260503020549 60 223 0.0 2.0 0.00 0.00 0.00 78 1005.0
20260503020044 60 222 0.0 0.0 0.00 0.00 0.00 77 1005.0
20260503015554 61 222 0.0 0.0 0.00 0.00 0.00 76 1004.9
20260503015049 61 222 0.0 2.0 0.00 0.00 0.00 75 1004.9
20260503014552 62 222 0.0 2.0 0.00 0.00 0.00 74 1004.9
20260503014106 62 227 0.0 0.0 0.00 0.00 0.00 73 1004.9
20260503013554 63 227 0.0 1.0 0.00 0.00 0.00 73 1004.9
20260503013051 63 227 0.0 2.0 0.00 0.00 0.00 72 1004.9
20260503012606 63 242 0.0 2.0 0.00 0.00 0.00 71 1004.9
20260503012040 64 244 0.0 1.0 0.00 0.00 0.00 68 1004.9
20260503011539 65 265 0.0 3.0 0.00 0.00 0.00 67 1004.9
20260503011033 66 267 1.0 3.0 0.00 0.00 0.00 65 1004.8
20260503010532 66 246 0.0 2.0 0.00 0.00 0.00 65 1004.8
20260503010107 67 244 0.0 5.0 0.00 0.00 0.00 63 1004.8
20260503005541 68 247 1.0 5.0 0.00 0.00 0.00 61 1004.7
20260503005036 69 241 0.0 2.0 0.00 0.00 0.00 61 1004.7
20260503004550 69 244 0.0 1.0 0.00 0.00 0.00 61 1004.7
20260503004044 69 244 0.0 1.0 0.00 0.00 0.00 59 1004.7
20260503003559 69 244 0.0 0.0 0.00 0.00 0.00 60 1004.7
20260503003041 69 244 0.0 0.0 0.00 0.00 0.00 60 1004.7
20260503002537 69 244 0.0 0.0 0.00 0.00 0.00 61 1004.9
20260503002113 69 244 0.0 2.0 0.00 0.00 0.00 61 1004.9
20260503001546 68 244 0.0 2.0 0.00 0.00 0.00 63 1004.9
20260503001040 68 178 1.0 2.0 0.00 0.00 0.00 61 1005.0
20260503000539 68 292 0.0 6.0 0.00 0.00 0.00 62 1005.0
20260503000033 68 293 0.0 6.0 0.00 0.00 0.00 63 1005.0
20260502235547 68 257 0.0 1.0 0.00 0.00 0.00 62 1005.0
20260502235115 68 278 0.0 0.0 0.00 0.00 0.00 63 1005.0
20260502234551 68 287 0.0 1.0 0.00 0.00 0.00 64 1005.0
20260502234046 67 291 0.0 1.0 0.00 0.00 0.00 65 1005.0
20260502233541 66 290 0.0 6.0 0.00 0.00 0.00 66 1005.0
20260502233037 66 293 0.0 7.0 0.00 0.00 0.00 68 1005.0
20260502232556 66 286 1.0 7.0 0.00 0.00 0.00 67 1005.2
20260502232029 66 283 2.0 6.0 0.00 0.00 0.00 66 1005.2
20260502231621 65 293 0.0 6.0 0.00 0.00 0.00 67 1005.2
20260502231103 65 232 2.0 10.0 0.00 0.00 0.00 68 1005.5
20260502230544 65 277 2.0 10.0 0.00 0.00 0.00 68 1005.5
20260502230039 65 293 1.0 7.0 0.00 0.00 0.00 68 1005.5
20260502225549 65 261 0.0 11.0 0.00 0.00 0.00 68 1005.3
20260502225045 64 250 1.0 12.0 0.00 0.00 0.00 68 1005.3
20260502224600 65 254 4.0 12.0 0.00 0.00 0.00 67 1005.3
20260502224037 65 223 0.0 11.0 0.00 0.00 0.00 69 1006.0
20260502223533 65 284 2.0 11.0 0.00 0.00 0.00 67 1006.0
20260502223108 66 259 1.0 5.0 0.00 0.00 0.00 68 1006.0
20260502222542 66 242 2.0 8.0 0.00 0.00 0.00 67 1006.4
20260502222035 66 163 2.0 9.0 0.00 0.00 0.00 68 1006.4
20260502221549 65 284 1.0 7.0 0.00 0.00 0.00 68 1006.4
20260502221036 66 286 3.0 7.0 0.00 0.00 0.00 67 1006.6
20260502220534 66 286 0.0 5.0 0.00 0.00 0.00 68 1006.6
20260502220049 65 231 0.0 3.0 0.00 0.00 0.00 70 1006.6
20260502215605 65 250 1.0 6.0 0.00 0.00 0.00 71 1007.0
20260502215039 65 213 1.0 11.0 0.00 0.00 0.00 70 1007.0
20260502214535 65 274 3.0 11.0 0.00 0.00 0.00 70 1007.0
20260502214050 64 279 1.0 10.0 0.00 0.00 0.00 71 1007.1
20260502213542 64 195 0.0 10.0 0.00 0.00 0.00 71 1007.1
20260502213137 65 298 2.0 9.0 0.00 0.00 0.00 70 1007.1
20260502212633 65 269 4.0 9.0 0.00 0.00 0.00 69 1007.2
20260502212041 65 266 4.0 7.0 0.00 0.00 0.00 70 1007.2
20260502211535 65 222 0.0 10.0 0.00 0.00 0.00 71 1007.2
20260502211032 65 187 0.0 4.0 0.00 0.00 0.00 71 1007.4
20260502210530 65 226 2.0 6.0 0.00 0.00 0.00 69 1007.4
20260502210048 66 211 1.0 7.0 0.00 0.00 0.00 68 1007.4
20260502205603 66 200 1.0 7.0 0.00 0.00 0.00 71 1007.6
20260502205037 66 269 1.0 6.0 0.00 0.00 0.00 70 1007.6
20260502204532 66 182 1.0 5.0 0.00 0.00 0.00 72 1007.6
20260502204048 65 180 1.0 6.0 0.00 0.00 0.00 72 1007.4
20260502203544 65 261 3.0 9.0 0.00 0.00 0.00 71 1007.4
20260502203042 65 261 0.0 9.0 0.00 0.00 0.00 73 1007.4
20260502202536 65 230 3.0 10.0 0.00 0.00 0.00 72 1007.5
20260502202158 65 253 1.0 10.0 0.00 0.00 0.00 72 1007.5
20260502201552 66 252 0.0 10.0 0.00 0.00 0.00 72 1007.5
20260502201046 66 283 5.0 10.0 0.00 0.00 0.00 70 1007.6
20260502200542 66 227 0.0 2.0 0.00 0.00 0.00 72 1007.6
20260502200038 65 269 0.0 7.0 0.00 0.00 0.00 74 1007.6
20260502195552 64 282 0.0 7.0 0.00 0.00 0.00 74 1007.9
20260502195046 64 192 2.0 7.0 0.00 0.00 0.00 73 1007.9
20260502194601 65 243 2.0 7.0 0.00 0.00 0.00 72 1007.9
20260502194035 66 279 4.0 7.0 0.00 0.00 0.00 71 1008.1
20260502193550 66 71 0.0 6.0 0.00 0.00 0.00 72 1008.1
20260502193043 66 194 2.0 5.0 0.00 0.00 0.00 73 1008.1
20260502192652 65 285 0.0 7.0 0.00 0.00 0.00 75 1008.2
20260502192046 65 286 2.0 9.0 0.00 0.00 0.00 74 1008.2
20260502191539 64 275 1.0 4.0 0.00 0.00 0.00 76 1008.2
20260502191043 64 277 0.0 7.0 0.00 0.00 0.00 77 1008.5
20260502190539 64 278 1.0 7.0 0.00 0.00 0.00 76 1008.5
20260502185537 64 235 0.0 4.0 0.00 0.00 0.00 76 1008.7
20260502185053 64 220 2.0 4.0 0.00 0.00 0.00 75 1008.7
20260502184626 65 165 0.0 0.0 0.00 0.00 0.00 77 1008.7
20260502184046 64 165 0.0 0.0 0.00 0.00 0.00 79 1008.7
20260502183536 64 165 0.0 0.0 0.00 0.00 0.00 80 1008.7
20260502183111 63 166 0.0 0.0 0.00 0.00 0.00 80 1008.7
20260502182545 63 166 0.0 0.0 0.00 0.00 0.00 81 1008.8
20260502182044 62 166 0.0 0.0 0.00 0.00 0.00 81 1008.8
20260502181600 62 166 0.0 0.0 0.00 0.00 0.00 82 1008.8
20260502181033 62 165 0.0 0.0 0.00 0.00 0.00 82 1008.8
20260502180548 62 166 0.0 0.0 0.00 0.00 0.00 83 1008.8
20260502164207 59 269 0.0 2.0 0.00 0.00 0.00 92 1009.3
20260502163553 59 269 1.0 2.0 0.00 0.00 0.00 93 1009.3
20260502163032 59 269 0.0 2.0 0.00 0.00 0.00 93 1009.3
20260502162547 59 269 0.0 2.0 0.00 0.00 0.00 93 1009.2
20260502162042 59 265 0.0 0.0 0.00 0.00 0.00 94 1009.2
20260502161541 59 265 0.0 0.0 0.00 0.00 0.00 94 1009.2
20260502161039 58 265 0.0 0.0 0.00 0.00 0.00 94 1009.3
20260502160534 58 265 0.0 0.0 0.00 0.00 0.00 94 1009.3
20260502152042 58 263 0.0 0.0 0.00 0.00 0.00 94 1009.0
20260502151557 57 263 0.0 0.0 0.00 0.00 0.00 95 1009.0
20260502151032 57 263 0.0 0.0 0.00 0.00 0.00 95 1009.0
20260502150546 57 263 0.0 0.0 0.00 0.00 0.00 94 1009.0
20260502130545 57 263 0.0 0.0 0.00 0.00 0.00 95 1008.2
20260502123538 57 263 0.0 0.0 0.00 0.00 0.00 95 1008.1
20260502123035 57 263 0.0 0.0 0.00 0.00 0.00 95 1008.1
20260502122549 57 263 0.0 0.0 0.00 0.00 0.00 95 1008.0
20260502122100 57 263 0.0 0.0 0.00 0.00 0.00 95 1008.0
20260502121549 57 263 0.0 0.0 0.00 0.00 0.00 95 1008.0
20260502121048 56 263 0.0 0.0 0.00 0.00 0.00 95 1008.0
20260502120544 56 263 0.0 0.0 0.00 0.00 0.00 95 1008.0
20260502115555 56 263 0.0 0.0 0.00 0.00 0.00 94 1007.7
20260502115109 57 263 0.0 0.0 0.00 0.00 0.00 94 1007.7
20260502114604 57 263 0.0 0.0 0.00 0.00 0.00 95 1007.7
20260502114038 56 263 0.0 0.0 0.00 0.00 0.00 94 1007.7
20260502113551 56 263 0.0 0.0 0.00 0.00 0.00 94 1007.7
20260502113146 56 263 0.0 0.0 0.00 0.00 0.00 94 1007.7
20260502112549 56 263 0.0 0.0 0.00 0.00 0.00 94 1007.6
20260502112036 56 263 0.0 0.0 0.00 0.00 0.00 94 1007.6
20260502111531 56 263 0.0 0.0 0.00 0.00 0.00 94 1007.6
20260502111044 56 263 0.0 0.0 0.00 0.00 0.00 94 1007.6
20260502110540 56 263 0.0 0.0 0.00 0.00 0.00 94 1007.6
20260502110050 56 263 0.0 0.0 0.00 0.00 0.00 94 1007.6
20260502105548 57 263 0.0 0.0 0.00 0.00 0.00 94 1007.6
20260502105040 57 263 0.0 0.0 0.00 0.00 0.00 94 1007.6
20260502104535 57 263 0.0 0.0 0.00 0.00 0.00 94 1007.6
20260502104051 57 263 0.0 0.0 0.00 0.00 0.00 94 1007.4
20260502103545 56 263 0.0 0.0 0.00 0.00 0.00 94 1007.4
20260502103040 56 263 0.0 0.0 0.00 0.00 0.00 94 1007.4
20260502102539 56 263 0.0 0.0 0.00 0.00 0.00 94 1007.4
20260502102054 56 263 0.0 0.0 0.00 0.00 0.00 94 1007.4
20260502101528 56 263 0.0 0.0 0.00 0.00 0.00 94 1007.4
20260502101047 56 263 0.0 0.0 0.00 0.00 0.00 94 1007.4
20260502100541 56 263 0.0 0.0 0.00 0.00 0.00 94 1007.4
20260502100153 56 263 0.0 0.0 0.00 0.00 0.00 94 1007.4
20260502091533 56 263 0.0 0.0 0.00 0.00 0.00 94 1007.6
20260502091044 56 263 0.0 0.0 0.00 0.00 0.00 94 1007.7
20260502090559 56 263 0.0 0.0 0.00 0.00 0.00 93 1007.7
20260502071146 55 263 0.0 0.0 0.00 0.00 0.00 92 1008.3
20260502070553 55 263 0.0 0.0 0.00 0.00 0.00 91 1008.3
20260502070031 55 263 0.0 0.0 0.00 0.00 0.00 91 1008.3
20260502065547 55 263 0.0 0.0 0.00 0.00 0.00 91 1008.2
20260502065042 55 263 0.0 0.0 0.00 0.00 0.00 90 1008.2
20260502064624 55 263 0.0 0.0 0.00 0.00 0.00 90 1008.2
20260502064044 55 263 0.0 0.0 0.00 0.00 0.00 90 1008.2
20260502063539 55 263 0.0 0.0 0.00 0.00 0.00 90 1008.2
20260502063038 55 263 0.0 0.0 0.00 0.00 0.00 90 1008.2
20260502062553 55 263 0.0 0.0 0.00 0.00 0.00 90 1008.2
20260502062046 56 263 0.0 0.0 0.00 0.00 0.00 90 1008.2
20260502061542 56 263 0.0 0.0 0.00 0.00 0.00 90 1008.2
20260502061037 56 263 0.0 0.0 0.00 0.00 0.00 89 1008.2
20260502060532 56 263 0.0 0.0 0.00 0.00 0.00 89 1008.2
20260502060035 56 263 0.0 0.0 0.00 0.00 0.00 89 1008.2
20260502055551 56 263 0.0 0.0 0.00 0.00 0.00 89 1008.1
20260502055044 57 263 0.0 0.0 0.00 0.00 0.00 89 1008.1
20260502054609 57 263 0.0 0.0 0.00 0.00 0.00 89 1008.1
20260502054037 57 263 0.0 0.0 0.00 0.00 0.00 89 1008.2
20260502053546 57 263 0.0 0.0 0.00 0.00 0.00 89 1008.2
20260502053042 57 263 0.0 0.0 0.00 0.00 0.00 89 1008.2
20260502052541 57 263 0.0 0.0 0.00 0.00 0.00 89 1008.2
20260502052037 57 263 0.0 0.0 0.00 0.00 0.00 89 1008.2
20260502051536 58 263 0.0 0.0 0.00 0.00 0.00 89 1008.2
20260502051030 58 263 0.0 0.0 0.00 0.00 0.00 89 1008.2
20260502050637 58 263 0.0 0.0 0.00 0.00 0.00 89 1008.2
20260502050046 58 263 0.0 2.0 0.00 0.00 0.00 89 1008.2
20260502045540 58 263 0.0 3.0 0.00 0.00 0.00 89 1008.1
20260502045113 58 263 0.0 3.0 0.00 0.00 0.00 89 1008.1
20260502044621 58 217 0.0 4.0 0.00 0.00 0.00 88 1008.1
20260502044034 58 217 0.0 4.0 0.00 0.00 0.00 88 1008.0
20260502043534 58 271 0.0 2.0 0.00 0.00 0.00 88 1008.0
20260502043028 58 266 0.0 1.0 0.00 0.00 0.00 88 1008.0
20260502042544 58 266 0.0 0.0 0.00 0.00 0.00 88 1007.7
20260502042040 58 266 0.0 0.0 0.00 0.00 0.00 88 1007.7
20260502041535 58 266 0.0 1.0 0.00 0.00 0.00 88 1007.7
20260502041031 58 266 0.0 1.0 0.00 0.00 0.00 88 1007.6
20260502040545 59 265 0.0 1.0 0.00 0.00 0.00 88 1007.6
20260502040058 59 265 0.0 1.0 0.00 0.00 0.00 88 1007.6
20260502035532 59 266 0.0 0.0 0.00 0.00 0.00 88 1007.4
20260502035104 59 266 0.0 1.0 0.00 0.00 0.00 88 1007.4
20260502034537 59 266 0.0 1.0 0.00 0.00 0.00 88 1007.4
20260502034110 59 266 0.0 0.0 0.00 0.00 0.00 88 1007.1
20260502033545 59 265 0.0 0.0 0.00 0.00 0.00 88 1007.1
20260502033049 59 265 0.0 0.0 0.00 0.00 0.00 88 1007.1
20260502032555 59 265 0.0 0.0 0.00 0.00 0.00 88 1006.8
20260502032102 59 266 0.0 2.0 0.00 0.00 0.00 87 1006.8
20260502031533 59 267 0.0 1.0 0.00 0.00 0.00 87 1006.8
20260502031024 59 271 0.0 6.0 0.00 0.00 0.00 87 1006.6
20260502030543 59 277 1.0 6.0 0.00 0.00 0.00 87 1006.6
20260502030036 59 288 0.0 7.0 0.00 0.00 0.00 87 1006.6
20260502025534 59 287 2.0 9.0 0.00 0.00 0.00 87 1006.6